Regional Weather Roundup
Issued by NWS Cleveland, OH

Home | Current Version | Previous Version | Text Only | Print | Product List | Glossary On
Versions: 1 2 3 4 5 6 7 8 9 10 11 12 13 14 15 16 17 18 19 20 21 22 23 24 25 26 27 28 29 30 31 32 33 34 35 36 37 38 39 40 41 42 43 44 45 46 47 48 49 50
000
ASUS41 KCLE 190512
RWRCLE
OHIO REGIONAL WEATHER ROUNDUP
NATIONAL WEATHER SERVICE WILMINGTON, OH
100 AM EDT SUN AUG 19 2018

NOTE: "FAIR" INDICATES FEW OR NO CLOUDS BELOW 12,000 FEET WITH NO
SIGNIFICANT WEATHER AND/OR OBSTRUCTIONS TO VISIBILITY.

OHZ001>008-015>018-024>027-034-035-043-044-190600-
   NORTHWEST OHIO

CITY           SKY/WX    TMP DP  RH WIND       PRES   REMARKS
DEFIANCE       FAIR      70  68  93 CALM      29.98R
FINDLAY        FAIR      70  65  84 E7        29.96S
TOLEDO EXPRESS CLOUDY    73  67  81 NE3       29.98S
TOLEDO EXEC    MOCLDY    71  67  87 CALM      29.99R
LIMA           FAIR      65  62  90 E5        29.98R
$$

OHZ009>014-019>023-028>033-038-089-190600-
   NORTHEAST OHIO

CITY           SKY/WX    TMP DP  RH WIND       PRES   REMARKS
CLE-HOPKINS    FAIR      69  62  78 E6        30.00S
CLE-LAKEFRONT  FAIR      69  61  75 E7        29.97R
CUY CO. ARPT   NOT AVBL
LORAIN-ELYRIA  FAIR      65  56  72 NE8       29.99R
ASHTABULA      FAIR      61  61 100 CALM      30.00R
AKRON-CANTON   FAIR      64  59  83 NE7       29.98R
WOOSTER        FAIR      62  60  93 NE3       29.99R
MANSFIELD      FAIR      65  62  90 NE7       29.98S
YOUNGSTOWN     FAIR      63  61  93 E7        29.98R
$$

OHZ042-051>053-060>062-070>072-077>081-190600-
  SOUTHWEST OHIO

CITY           SKY/WX    TMP DP  RH WIND       PRES   REMARKS
CINC-COVINGTON FAIR      72  68  87 N6        29.95R
CINC-LUNKEN    FAIR      69  69 100 CALM      29.94S FOG
HAMILTON       FAIR      69  67  93 CALM      29.96R
DAYTON         FAIR      68  66  93 N5        29.98R
WRIGHT-PAT AFB FAIR      69  66  90 CALM      29.95S
DAYTON GENERAL FAIR      71  66  84 NE3       29.95S
WILMINGTON     CLOUDY    70  69  97 N6        29.95R
$$

OHZ036-037-039>041-045>050-054>059-063>069-073>076-082>088-190600-
  CENTRAL AND SOUTHEAST OHIO

CITY           SKY/WX    TMP DP  RH WIND       PRES   REMARKS
COLUMBUS       FAIR      69  62  78 E5        29.94S
OSU AIRPORT    FAIR      67  65  93 N3        29.96R
BOLTON FIELD   FAIR      68  66  94 NE3       29.96R
RICKENBACK AFB FAIR      68  66  93 NE6       29.94R
NEWARK         FAIR      65  64  97 CALM      29.95S
MARION         FAIR      65  61  87 N5        29.97F
LANCASTER      FAIR      69  67  93 N3        29.95R
ZANESVILLE     FAIR      67  63  87 NW3       29.95S
NEW PHILLY     FAIR      63  61  93 CALM      29.96F
$$



USA.gov is the U.S. government's official web portal to all federal, state and local government web resources and services.